Location: Béaulencourt
(50.0796°N, 2.8795°E)
Time: 00:29:21
(UTC+00:00)

Cosmos 44 - Pass Details

Date: 20 January 2026
Orbit: 570 x 780 km, 65.1° (Epoch: 9 February)

Event Time Altitude Azimuth Distance (km) Brightness Sun altitude
Exits shadow 05:18:32 42° 238° (WSW) 1,106 3.9 -21.8°
Drops below altitude 10° 05:23:27 10° 172° (S) 2,323 6.2 -21.0°
Sets 05:25:57 0° 165° (SSE) 3,238 7.0 -20.6°
